Location: Newark
(3.3223°N, 76.2348°W)
Time: 20:14:41
(UTC+00:00)

LightSail 2 - Visible Passes

Search period start: 19 November 2019 00:00
Search period end: 29 November 2019 00:00
Orbit: 700 x 727 km, 24.0° (Epoch: 17 November)

Date Brightness Start Highest point End Pass type
(mag) Time Alt. Az. Time Alt. Az. Time Alt. Az.
19 Nov 6.1 00:36:21 10° SW 00:40:29 36° S 00:40:29 36° S visible
19 Nov 7.4 09:30:36 11° N 09:32:18 13° NNE 09:34:31 10° NE visible
19 Nov 6.6 23:38:52 10° SSW 23:43:06 26° SSE 23:46:14 15° ESE visible
20 Nov 7.4 01:23:32 10° WSW 01:25:13 21° WSW 01:25:13 21° WSW visible
20 Nov 6.7 10:16:04 10° NW 10:20:20 25° NNE 10:24:37 10° ENE visible
21 Nov 5.0 00:25:39 10° WSW 00:30:43 69° SSE 00:30:57 68° SE visible
21 Nov 6.9 09:21:03 18° N 09:22:17 19° NNE 09:25:55 10° ENE visible
21 Nov 5.7 23:27:54 10° SW 23:32:48 46° SSE 23:36:42 15° E visible
22 Nov 7.1 01:13:29 10° W 01:15:41 24° W 01:15:41 24° W visible
22 Nov 7.9 08:26:47 10° NE 08:26:47 10° NE 08:26:57 10° NE visible
22 Nov 6.0 10:05:46 13° NW 10:10:05 42° NNE 10:15:00 10° E visible
23 Nov 5.2 00:15:19 10° WSW 00:20:23 65° NNW 00:21:26 51° NNE visible
23 Nov 6.3 09:11:31 29° N 09:12:05 30° NNE 09:16:37 10° E visible
23 Nov 5.1 23:17:18 10° WSW 23:22:27 86° SSE 23:27:11 12° ENE visible
24 Nov 7.1 01:03:50 10° WNW 01:06:10 21° NW 01:06:10 21° NW visible
24 Nov 7.8 08:17:15 13° ENE 08:17:15 13° ENE 08:18:02 10° ENE visible
24 Nov 5.2 09:56:14 21° WNW 09:59:44 76° NNE 10:04:56 10° ESE visible
25 Nov 6.1 00:05:22 10° W 00:10:03 36° NNW 00:11:53 27° NNE visible
25 Nov 5.6 09:01:57 52° NNE 09:01:57 52° NNE 09:06:48 10° E visible
25 Nov 5.7 23:07:04 10° W 23:12:04 52° NNW 23:17:02 10° NE visible
26 Nov 7.4 00:54:40 10° WNW 00:56:35 15° NW 00:56:35 15° NW visible
26 Nov 7.8 08:07:40 14° E 08:07:40 14° E 08:08:30 10° E visible
26 Nov 5.4 09:46:39 27° W 09:49:20 59° SSW 09:54:26 10° SE visible
26 Nov 6.8 23:55:50 10° WNW 23:59:46 22° NNW 00:02:16 16° NNE visible
27 Nov 5.6 08:52:20 59° ESE 08:52:20 59° ESE 08:56:32 10° ESE visible
28 Nov 7.6 00:46:25 10° NNW 00:46:55 11° NNW 00:46:55 11° NNW visible
28 Nov 8.0 07:58:00 13° ESE 07:58:00 13° ESE 07:58:30 10° ESE visible
28 Nov 6.2 09:36:59 24° WSW 09:38:55 32° SSW 09:43:31 10° SE visible
28 Nov 7.3 23:46:53 10° NW 23:49:36 14° NNW 23:52:19 10° NNE visible
